Weather History for CWPR - October, 2012

Change the Weather History Date:

Thursday, October 18, 2012

  Actual Average Record
Temperature  
Mean Temperature 48 °F -  
Max Temperature 56 °F - - ()
Min Temperature 40 °F - - ()
Degree Days  
Heating Degree Days 17    
Moisture  
Dew Point 37 °F    
Average Humidity 68    
Maximum Humidity 85    
Minimum Humidity 41    
Precipitation  
Precipitation 0.00 in - - ()
Sea Level Pressure  
Sea Level Pressure 30.01 in    
Wind  
Wind Speed 2 mph ()    
Max Wind Speed 13 mph    
Max Gust Speed -    
T = Trace of Precipitation, MM = Missing Value Source: Averaged Metar Reports

Daily Weather History Graph

Daily Weather History Graph

Search for Another Location

Airport or City:

Trip Planner

Search our weather history database for the weather conditions in past years. The results will help you decide how hot, cold, wet, or windy it might be!

Date:

Astronomy

Oct. 18, 2012 Rise Set
Actual Time 7:28 AM PDT 6:04 PM PDT
Civil Twilight 6:56 AM PDT 6:36 PM PDT
Nautical Twilight 6:19 AM PDT 7:13 PM PDT
Astronomical Twilight 5:42 AM PDT 7:50 PM PDT
Moon 11:36 AM PDT (10/18) 8:23 PM PDT (10/18)
Length of Visible Light 11h 40m
Length of Day
10h 35m
Waxing Crescent, 15% of the Moon is Illuminated
Oct 18
Waxing Crescent
Oct 21
First Quarter
Oct 29
Full
Nov 6
Last Quarter
Nov 13
New

Hourly Weather History & Observations

Time (PDT) Temp. Dew Point Humidity Pressure Visibility Wind Dir Wind Speed Gust Speed Precip Events Conditions
12:00 AM 42.3 °F 34.9 °F 75% 30.21 in - Calm Calm - N/A   Unknown
1:00 AM 41.0 °F 34.0 °F 76% 30.19 in - North 2.3 mph - N/A   Unknown
2:00 AM 41.5 °F 34.5 °F 76% 30.20 in - Calm Calm - N/A   Unknown
3:00 AM 41.0 °F 35.1 °F 79% 30.21 in - Calm Calm - N/A   Unknown
4:00 AM 40.8 °F 35.4 °F 81% 30.20 in - Calm Calm - N/A   Unknown
5:00 AM 41 °F 35 °F 73% 30.19 in - Calm Calm - -  
5:00 AM 40.8 °F 35.4 °F 81% 30.19 in - Calm Calm - N/A   Unknown
6:00 AM 40.8 °F 36.0 °F 83% 30.21 in - Calm Calm - N/A   Unknown
7:00 AM 40.8 °F 36.0 °F 83% 30.20 in - Calm Calm - N/A   Unknown
8:00 AM 40.8 °F 35.4 °F 81% 30.17 in - Calm Calm - N/A   Unknown
9:00 AM 42.1 °F 35.6 °F 78% 30.17 in - Calm Calm - N/A   Unknown
10:00 AM 43.2 °F 36.5 °F 77% 30.14 in - Calm Calm - N/A   Unknown
11:00 AM 48 °F 37 °F 55% 30.09 in - Calm Calm - -  
11:00 AM 48.4 °F 36.9 °F 64% 30.09 in - Calm Calm - N/A   Unknown
12:00 PM 51.3 °F 35.2 °F 54% 30.05 in - NW 3.5 mph - N/A   Unknown
1:00 PM 53.2 °F 35.6 °F 51% 30.00 in - Calm Calm - N/A   Unknown
2:00 PM 52.9 °F 36.3 °F 53% 29.95 in - North 10.4 mph - N/A   Unknown
3:00 PM 56.5 °F 36.9 °F 48% 29.90 in - North 9.2 mph - N/A   Unknown
4:00 PM 55.6 °F 37.0 °F 50% 29.88 in - North 9.2 mph - N/A   Unknown
5:00 PM 54 °F 37 °F 41% 29.86 in - NNW 9.2 mph - -  
5:00 PM 54.5 °F 37.2 °F 52% 29.86 in - NNW 9.2 mph - N/A   Unknown
6:00 PM 52.7 °F 38.1 °F 58% 29.83 in - North 12.7 mph - N/A   Unknown
7:00 PM 52.2 °F 39.9 °F 63% 29.79 in - WSW 1.2 mph - N/A   Unknown
8:00 PM 50.2 °F 40.6 °F 70% 29.78 in - Calm Calm - N/A   Unknown
9:00 PM 52.0 °F 41.4 °F 67% 29.77 in - Calm Calm - N/A   Unknown
10:00 PM 54.1 °F 43.5 °F 67% 29.76 in - SSW 6.9 mph - N/A   Unknown
11:00 PM 50 °F 46 °F 81% 29.75 in - Calm Calm - -  
11:00 PM 50.2 °F 45.9 °F 85% 29.75 in - Calm Calm - N/A   Unknown